SWR9PX LSZH-ESSA

Flight info

Callsign SWR9PX
Flight time 2h 7m
Altitude 32000
Route N0428F320 DEGES Z1 BODAN/N0428F320 Z1 ETAGO/N0428F340 DCT TIKNI/N0431F350 DCT ROBEL DCT LOLPA DCT FARCU DCT GORPI DCT ARMOD Z228 NILUG
Aircraft A21N/M-SDE2E3FGIJ1LORVWXY/LB1

Departure

Time 2026-05-05 07:46
Airport Zürich Airport (LSZH)

Arrival

Time 2026-05-05 09:53
Airport Stockholm-Arlanda Airport (ESSA)
Time Latitude Longitude Altitude Speed Heading
2026-05-05 07:31 47.45415 8.56062 1411 ft 0 kts 185°
2026-05-05 07:39 47.45418 8.56063 1409 ft 3 kts 186°
2026-05-05 07:39 47.45444 8.56070 1412 ft 4 kts 186°
2026-05-05 07:39 47.45465 8.56065 1410 ft 4 kts 154°
2026-05-05 07:39 47.45484 8.56042 1412 ft 4 kts 115°
2026-05-05 07:40 47.45489 8.56013 1412 ft 0 kts 95°
2026-05-05 07:42 47.45489 8.56019 1412 ft 3 kts 95°
2026-05-05 07:42 47.45486 8.56062 1409 ft 5 kts 96°
2026-05-05 07:42 47.45481 8.56128 1405 ft 8 kts 96°
2026-05-05 07:42 47.45483 8.56216 1402 ft 10 kts 64°
2026-05-05 07:43 47.45528 8.56307 1405 ft 12 kts 51°
2026-05-05 07:43 47.45585 8.56411 1408 ft 14 kts 52°
2026-05-05 07:43 47.45588 8.56562 1409 ft 16 kts 96°
2026-05-05 07:43 47.45582 8.56688 1402 ft 7 kts 97°
2026-05-05 07:44 47.45574 8.56774 1407 ft 10 kts 98°
2026-05-05 07:44 47.45564 8.56882 1402 ft 12 kts 96°
2026-05-05 07:44 47.45578 8.57005 1405 ft 14 kts 39°
2026-05-05 07:44 47.45645 8.57024 1405 ft 6 kts 345°
2026-05-05 07:45 47.45664 8.56972 1410 ft 0 kts 276°
2026-05-05 07:45 47.45667 8.56923 1404 ft 27 kts 276°
2026-05-05 07:45 47.45718 8.56211 1410 ft 111 kts 276°
2026-05-05 07:45 47.45828 8.54689 1443 ft 174 kts 276°
2026-05-05 07:46 47.45951 8.52869 2142 ft 180 kts 275°
2026-05-05 07:46 47.46073 8.51011 2963 ft 186 kts 275°
2026-05-05 07:46 47.46211 8.49038 3597 ft 200 kts 276°
2026-05-05 07:46 47.46235 8.46910 4225 ft 216 kts 258°
2026-05-05 07:47 47.45565 8.44868 4909 ft 228 kts 229°
2026-05-05 07:47 47.44317 8.43392 5677 ft 231 kts 212°
2026-05-05 07:47 47.43197 8.41714 6586 ft 233 kts 243°
2026-05-05 07:47 47.42711 8.39424 7443 ft 236 kts 255°
2026-05-05 07:48 47.42242 8.37107 8254 ft 237 kts 238°
2026-05-05 07:48 47.41157 8.35333 9075 ft 233 kts 210°
2026-05-05 07:48 47.39649 8.34537 9864 ft 232 kts 184°
2026-05-05 07:48 47.38054 8.34837 10572 ft 234 kts 159°
2026-05-05 07:49 47.36690 8.36157 11298 ft 240 kts 135°
2026-05-05 07:49 47.35821 8.38284 12004 ft 248 kts 111°
2026-05-05 07:49 47.35674 8.40854 12687 ft 260 kts 84°
2026-05-05 07:49 47.36381 8.43356 13343 ft 274 kts 54°
2026-05-05 07:50 47.37889 8.45124 13915 ft 284 kts 22°
2026-05-05 07:50 47.39814 8.45790 14509 ft 287 kts
2026-05-05 07:50 47.41690 8.46760 15071 ft 290 kts 37°
2026-05-05 07:50 47.43135 8.48888 15401 ft 301 kts 57°
2026-05-05 07:51 47.44366 8.51504 15691 ft 319 kts 60°
2026-05-05 07:51 47.45438 8.54457 15936 ft 334 kts 73°
2026-05-05 07:51 47.45927 8.57857 16203 ft 345 kts 89°
2026-05-05 07:51 47.46047 8.61474 16487 ft 362 kts 92°
2026-05-05 07:52 47.46132 8.65275 16755 ft 380 kts 91°
2026-05-05 07:52 47.46204 8.67959 16933 ft 392 kts 91°
2026-05-05 07:52 47.46333 8.72059 17261 ft 407 kts 90°
2026-05-05 07:52 47.46482 8.76272 17901 ft 413 kts 90°
2026-05-05 07:53 47.46610 8.80528 18598 ft 415 kts 92°
2026-05-05 07:53 47.46369 8.84776 19233 ft 414 kts 103°
2026-05-05 07:53 47.45784 8.88948 19807 ft 417 kts 105°
2026-05-05 07:53 47.45152 8.93150 20356 ft 422 kts 105°
2026-05-05 07:54 47.44529 8.97414 20891 ft 426 kts 105°
2026-05-05 07:54 47.43911 9.01698 21414 ft 430 kts 104°
2026-05-05 07:54 47.43290 9.06042 21883 ft 433 kts 104°
2026-05-05 07:54 47.42660 9.10408 22333 ft 437 kts 105°
2026-05-05 07:55 47.42159 9.14850 22729 ft 442 kts 97°
2026-05-05 07:55 47.42203 9.19428 23103 ft 450 kts 85°
2026-05-05 07:55 47.42900 9.23948 23569 ft 457 kts 73°
2026-05-05 07:55 47.44243 9.28219 24000 ft 461 kts 62°
2026-05-05 07:56 47.45878 9.32323 24420 ft 465 kts 60°
2026-05-05 07:56 47.47774 9.36210 24805 ft 470 kts 50°
2026-05-05 07:56 47.50146 9.39556 25209 ft 474 kts 38°
2026-05-05 07:56 47.52946 9.42161 25599 ft 477 kts 26°
2026-05-05 07:57 47.56043 9.43944 25983 ft 479 kts 17°
2026-05-05 07:57 47.59275 9.45124 26344 ft 481 kts
2026-05-05 07:57 47.62664 9.45481 26742 ft 482 kts
2026-05-05 07:57 47.66022 9.45609 27134 ft 484 kts 360°
2026-05-05 07:58 47.69357 9.45745 27557 ft 486 kts
2026-05-05 07:58 47.72775 9.45907 28108 ft 484 kts
2026-05-05 07:58 47.76140 9.46081 28633 ft 484 kts
2026-05-05 07:58 47.79502 9.46253 29137 ft 483 kts 359°
2026-05-05 07:59 47.82856 9.46278 29618 ft 482 kts 358°
2026-05-05 07:59 47.86208 9.46272 30039 ft 483 kts 358°
2026-05-05 07:59 47.89573 9.46251 30351 ft 484 kts 358°
2026-05-05 07:59 47.92946 9.46231 30716 ft 485 kts 358°
2026-05-05 08:00 47.96315 9.46218 31070 ft 485 kts 358°
2026-05-05 08:00 47.99692 9.46207 31403 ft 485 kts 358°
2026-05-05 08:00 48.03073 9.46199 31734 ft 486 kts 357°
2026-05-05 08:00 48.06453 9.46188 32100 ft 485 kts 358°
2026-05-05 08:01 48.09821 9.46182 32496 ft 484 kts 357°
2026-05-05 08:01 48.13194 9.46174 32821 ft 484 kts 357°
2026-05-05 08:01 48.16566 9.46166 33119 ft 485 kts 357°
2026-05-05 08:01 48.19939 9.46163 33423 ft 485 kts 357°
2026-05-05 08:02 48.23308 9.46179 33717 ft 485 kts 357°
2026-05-05 08:02 48.26689 9.46193 34011 ft 485 kts 357°
2026-05-05 08:02 48.30060 9.46193 34355 ft 483 kts 357°
2026-05-05 08:02 48.33407 9.46195 34718 ft 480 kts 357°
2026-05-05 08:03 48.36746 9.46199 34936 ft 480 kts 357°
2026-05-05 08:03 48.40073 9.46198 34933 ft 478 kts 357°
2026-05-05 08:03 48.46771 9.46201 34861 ft 478 kts 357°
2026-05-05 08:04 48.53435 9.46198 34860 ft 479 kts 357°
2026-05-05 08:04 48.60096 9.46131 34877 ft 479 kts 356°
2026-05-05 08:05 48.66753 9.46045 34869 ft 479 kts 356°
2026-05-05 08:05 48.73416 9.46179 34847 ft 479 kts
2026-05-05 08:06 48.80016 9.47714 34865 ft 481 kts
2026-05-05 08:06 48.86628 9.49313 34874 ft 481 kts
2026-05-05 08:07 48.93233 9.50894 34876 ft 480 kts
2026-05-05 08:07 48.99827 9.52468 34862 ft 479 kts
2026-05-05 08:08 49.06413 9.54049 34867 ft 479 kts
2026-05-05 08:08 49.12996 9.55643 34876 ft 479 kts
2026-05-05 08:09 49.19592 9.57241 34877 ft 480 kts
2026-05-05 08:09 49.26229 9.58833 34868 ft 480 kts
2026-05-05 08:10 49.32815 9.60437 34869 ft 479 kts
2026-05-05 08:10 49.39393 9.62058 34877 ft 478 kts
2026-05-05 08:11 49.45957 9.63640 34870 ft 478 kts
2026-05-05 08:11 49.52531 9.65247 34865 ft 478 kts
2026-05-05 08:12 49.59103 9.66857 34877 ft 477 kts
2026-05-05 08:12 49.65651 9.68468 34870 ft 476 kts
2026-05-05 08:13 49.72191 9.70111 34864 ft 476 kts
2026-05-05 08:13 49.78744 9.71714 34873 ft 476 kts
2026-05-05 08:14 49.85289 9.73330 34870 ft 476 kts
2026-05-05 08:14 49.91832 9.74978 34867 ft 476 kts
2026-05-05 08:15 49.98418 9.76611 34869 ft 476 kts
2026-05-05 08:15 50.04925 9.78235 34877 ft 477 kts
2026-05-05 08:16 50.11517 9.79887 34876 ft 477 kts
2026-05-05 08:16 50.18065 9.81544 34873 ft 477 kts
2026-05-05 08:17 50.24612 9.83190 34885 ft 477 kts
2026-05-05 08:17 50.31155 9.84849 34872 ft 476 kts
2026-05-05 08:18 50.37691 9.86552 34879 ft 477 kts
2026-05-05 08:18 50.40881 9.88020 34863 ft 481 kts 20°
2026-05-05 08:18 50.43848 9.90501 34877 ft 485 kts 32°
2026-05-05 08:19 50.49294 9.96775 34893 ft 487 kts 35°
2026-05-05 08:19 50.54738 10.03098 34887 ft 487 kts 34°
2026-05-05 08:20 50.60214 10.09382 34884 ft 487 kts 34°
2026-05-05 08:20 50.65672 10.15674 34878 ft 487 kts 34°
2026-05-05 08:21 50.71141 10.21976 34884 ft 487 kts 34°
2026-05-05 08:21 50.76612 10.28260 34882 ft 486 kts 34°
2026-05-05 08:22 50.82068 10.34557 34884 ft 486 kts 34°
2026-05-05 08:22 50.87506 10.40914 34897 ft 485 kts 34°
2026-05-05 08:23 50.92749 10.47661 34883 ft 486 kts 39°
2026-05-05 08:23 50.97831 10.54732 34898 ft 486 kts 39°
2026-05-05 08:24 51.02093 10.60670 34897 ft 486 kts 39°
2026-05-05 08:24 51.07173 10.67765 34898 ft 486 kts 39°
2026-05-05 08:25 51.12266 10.74886 34906 ft 488 kts 39°
2026-05-05 08:25 51.17370 10.82029 34902 ft 489 kts 39°
2026-05-05 08:26 51.22465 10.89198 34899 ft 489 kts 39°
2026-05-05 08:26 51.27562 10.96385 34897 ft 489 kts 39°
2026-05-05 08:27 51.32647 11.03576 34897 ft 487 kts 39°
2026-05-05 08:27 51.37707 11.10744 34881 ft 486 kts 38°
2026-05-05 08:28 51.42762 11.17939 34888 ft 485 kts 38°
2026-05-05 08:28 51.47810 11.25130 34892 ft 486 kts 39°
2026-05-05 08:29 51.52838 11.32354 34894 ft 485 kts 39°
2026-05-05 08:30 51.60403 11.43232 34881 ft 484 kts 39°
2026-05-05 08:30 51.65416 11.50460 34878 ft 484 kts 39°
2026-05-05 08:31 51.70428 11.57725 34881 ft 484 kts 39°
2026-05-05 08:31 51.75430 11.64998 34884 ft 484 kts 39°
2026-05-05 08:32 51.80420 11.72282 34877 ft 483 kts 39°
2026-05-05 08:32 51.85407 11.79566 34872 ft 483 kts 39°
2026-05-05 08:33 51.90386 11.86868 34882 ft 483 kts 39°
2026-05-05 08:33 51.95356 11.94202 34888 ft 483 kts 40°
2026-05-05 08:34 52.00323 12.01538 34880 ft 483 kts 40°
2026-05-05 08:34 52.05295 12.08871 34883 ft 483 kts 40°
2026-05-05 08:35 52.10255 12.16245 34884 ft 483 kts 40°
2026-05-05 08:35 52.15212 12.23636 34894 ft 483 kts 40°
2026-05-05 08:36 52.20177 12.31045 34890 ft 484 kts 40°
2026-05-05 08:36 52.25125 12.38477 34883 ft 484 kts 40°
2026-05-05 08:37 52.30073 12.45914 34867 ft 483 kts 40°
2026-05-05 08:37 52.35005 12.53377 34896 ft 483 kts 41°
2026-05-05 08:38 52.39961 12.60906 34874 ft 484 kts 41°
2026-05-05 08:38 52.44903 12.68411 34881 ft 484 kts 41°
2026-05-05 08:39 52.49834 12.75923 34882 ft 484 kts 41°
2026-05-05 08:39 52.54759 12.83443 34881 ft 484 kts 41°
2026-05-05 08:40 52.59679 12.90997 34885 ft 485 kts 41°
2026-05-05 08:40 52.64606 12.98584 34893 ft 485 kts 41°
2026-05-05 08:41 52.69531 13.06182 34919 ft 485 kts 41°
2026-05-05 08:41 52.74449 13.13787 34880 ft 485 kts 41°
2026-05-05 08:42 52.79364 13.21437 34872 ft 484 kts 42°
2026-05-05 08:42 52.84247 13.29066 34907 ft 483 kts 42°
2026-05-05 08:43 52.89130 13.36712 34901 ft 483 kts 42°
2026-05-05 08:43 52.94018 13.44363 34903 ft 483 kts 42°
2026-05-05 08:44 52.98898 13.52032 34905 ft 484 kts 42°
2026-05-05 08:44 53.03901 13.59523 34888 ft 483 kts 33°
2026-05-05 08:44 53.06794 13.62290 34902 ft 478 kts 21°
2026-05-05 08:45 53.09852 13.64452 34925 ft 477 kts 19°
2026-05-05 08:45 53.16039 13.68688 34909 ft 478 kts 19°
2026-05-05 08:46 53.22163 13.72990 34954 ft 478 kts 19°
2026-05-05 08:46 53.28287 13.77339 34903 ft 479 kts 19°
2026-05-05 08:47 53.34421 13.81696 34913 ft 479 kts 19°
2026-05-05 08:47 53.40557 13.86059 34916 ft 479 kts 19°
2026-05-05 08:48 53.46693 13.90441 34930 ft 480 kts 19°
2026-05-05 08:48 53.52847 13.94853 34944 ft 481 kts 19°
2026-05-05 08:49 53.59003 13.99277 34929 ft 481 kts 19°
2026-05-05 08:49 53.65160 14.03696 34917 ft 481 kts 19°
2026-05-05 08:50 53.71324 14.08139 34949 ft 483 kts 19°
2026-05-05 08:50 53.77493 14.12626 34937 ft 483 kts 19°
2026-05-05 08:51 53.83681 14.17138 34930 ft 483 kts 19°
2026-05-05 08:51 53.89793 14.21908 34917 ft 487 kts 27°
2026-05-05 08:52 53.95177 14.28994 34956 ft 491 kts 38°
2026-05-05 08:52 54.00469 14.36443 34919 ft 490 kts 37°
2026-05-05 08:53 54.05744 14.43727 34927 ft 488 kts 36°
2026-05-05 08:53 54.11029 14.51013 34936 ft 489 kts 37°
2026-05-05 08:54 54.16311 14.58336 34942 ft 489 kts 37°
2026-05-05 08:54 54.21583 14.65692 34936 ft 490 kts 37°
2026-05-05 08:55 54.26863 14.73062 34928 ft 490 kts 37°
2026-05-05 08:55 54.32143 14.80439 34937 ft 490 kts 37°
2026-05-05 08:56 54.37413 14.87850 34953 ft 490 kts 37°
2026-05-05 08:56 54.42686 14.95293 34928 ft 491 kts 37°
2026-05-05 08:57 54.47067 15.01503 34940 ft 491 kts 37°
2026-05-05 08:57 54.52342 15.08967 34934 ft 491 kts 37°
2026-05-05 08:58 54.57609 15.16448 34972 ft 491 kts 37°
2026-05-05 08:58 54.62865 15.23966 34942 ft 490 kts 37°
2026-05-05 08:59 54.68111 15.31487 34935 ft 490 kts 37°
2026-05-05 08:59 54.73356 15.39050 34946 ft 490 kts 37°
2026-05-05 09:00 54.78638 15.46659 34943 ft 491 kts 37°
2026-05-05 09:00 54.83845 15.54207 34951 ft 491 kts 37°
2026-05-05 09:01 54.89112 15.61858 34949 ft 491 kts 36°
2026-05-05 09:01 54.94934 15.67673 34946 ft 479 kts 15°
2026-05-05 09:02 55.01226 15.71403 34953 ft 478 kts 14°
2026-05-05 09:02 55.07527 15.75216 34946 ft 479 kts 14°
2026-05-05 09:03 55.13817 15.79078 34950 ft 480 kts 14°
2026-05-05 09:03 55.20115 15.82963 34950 ft 480 kts 14°
2026-05-05 09:04 55.26405 15.86869 34950 ft 480 kts 15°
2026-05-05 09:04 55.32677 15.90810 34952 ft 478 kts 15°
2026-05-05 09:05 55.38946 15.94735 34945 ft 478 kts 14°
2026-05-05 09:05 55.45206 15.98646 34947 ft 477 kts 14°
2026-05-05 09:06 55.51469 16.02557 34944 ft 477 kts 15°
2026-05-05 09:06 55.57731 16.06497 34944 ft 478 kts 15°
2026-05-05 09:07 55.63994 16.10439 34939 ft 478 kts 15°
2026-05-05 09:07 55.70255 16.14398 34938 ft 478 kts 15°
2026-05-05 09:08 55.76513 16.18403 34937 ft 478 kts 15°
2026-05-05 09:08 55.82787 16.22431 34939 ft 478 kts 15°
2026-05-05 09:08 55.85868 16.24404 34899 ft 465 kts 15°
2026-05-05 09:09 55.88896 16.26338 34883 ft 461 kts 15°
2026-05-05 09:09 55.94937 16.30192 34927 ft 460 kts 15°
2026-05-05 09:10 56.00962 16.34075 34927 ft 460 kts 15°
2026-05-05 09:10 56.07024 16.37997 34936 ft 460 kts 15°
2026-05-05 09:11 56.13046 16.41918 34921 ft 461 kts 15°
2026-05-05 09:11 56.19065 16.45847 34903 ft 461 kts 15°
2026-05-05 09:12 56.25089 16.49784 34917 ft 460 kts 15°
2026-05-05 09:12 56.31098 16.53739 34918 ft 457 kts 15°
2026-05-05 09:13 56.37068 16.57648 34906 ft 456 kts 14°
2026-05-05 09:13 56.43043 16.61588 34899 ft 457 kts 15°
2026-05-05 09:14 56.49008 16.65541 34895 ft 457 kts 15°
2026-05-05 09:14 56.54971 16.69506 34904 ft 456 kts 15°
2026-05-05 09:15 56.60922 16.73500 34888 ft 455 kts 15°
2026-05-05 09:15 56.66868 16.77469 34891 ft 456 kts 15°
2026-05-05 09:16 56.72816 16.81466 34892 ft 456 kts 15°
2026-05-05 09:16 56.78754 16.85469 34921 ft 456 kts 15°
2026-05-05 09:17 56.84680 16.89477 34890 ft 452 kts 15°
2026-05-05 09:17 56.90583 16.93474 34883 ft 453 kts 15°
2026-05-05 09:18 56.96496 16.97494 34891 ft 453 kts 15°
2026-05-05 09:18 57.02401 17.01526 34883 ft 453 kts 15°
2026-05-05 09:19 57.08298 17.05568 34892 ft 452 kts 15°
2026-05-05 09:19 57.14180 17.09611 34878 ft 452 kts 15°
2026-05-05 09:20 57.20073 17.13679 34878 ft 452 kts 15°
2026-05-05 09:20 57.25958 17.17765 34877 ft 452 kts 15°
2026-05-05 09:21 57.31873 17.21892 34900 ft 453 kts 15°
2026-05-05 09:21 57.37790 17.26007 34879 ft 454 kts 15°
2026-05-05 09:22 57.43702 17.30134 34877 ft 454 kts 15°
2026-05-05 09:22 57.49625 17.34237 34873 ft 453 kts 12°
2026-05-05 09:23 57.55708 17.36885 34875 ft 448 kts
2026-05-05 09:23 57.61805 17.39262 34868 ft 448 kts
2026-05-05 09:24 57.67898 17.41676 34870 ft 448 kts
2026-05-05 09:24 57.73990 17.44116 34865 ft 448 kts
2026-05-05 09:25 57.80085 17.46546 34850 ft 447 kts
2026-05-05 09:25 57.83100 17.47763 34418 ft 442 kts
2026-05-05 09:25 57.86137 17.48981 33472 ft 448 kts
2026-05-05 09:25 57.89174 17.50201 32878 ft 444 kts
2026-05-05 09:26 57.92157 17.51409 32485 ft 435 kts
2026-05-05 09:26 57.95112 17.52609 31995 ft 432 kts
2026-05-05 09:26 57.98043 17.53797 31458 ft 430 kts
2026-05-05 09:26 58.00957 17.54980 30927 ft 428 kts
2026-05-05 09:27 58.03857 17.56162 30424 ft 425 kts
2026-05-05 09:27 58.06741 17.57343 29930 ft 422 kts
2026-05-05 09:27 58.09608 17.58505 29343 ft 420 kts
2026-05-05 09:27 58.12463 17.59664 28813 ft 418 kts
2026-05-05 09:28 58.15317 17.60836 28335 ft 412 kts
2026-05-05 09:28 58.18069 17.61963 27826 ft 409 kts
2026-05-05 09:28 58.20839 17.63100 27355 ft 405 kts
2026-05-05 09:28 58.23581 17.64245 26870 ft 403 kts
2026-05-05 09:29 58.26348 17.65392 26359 ft 401 kts
2026-05-05 09:29 58.29071 17.66512 25863 ft 399 kts
2026-05-05 09:29 58.30866 17.67256 25555 ft 398 kts
2026-05-05 09:29 58.33564 17.68374 25105 ft 396 kts
2026-05-05 09:30 58.37151 17.69864 24497 ft 393 kts
2026-05-05 09:30 58.38918 17.70602 24216 ft 392 kts
2026-05-05 09:30 58.41584 17.71709 23789 ft 391 kts
2026-05-05 09:30 58.44238 17.72801 23346 ft 389 kts
2026-05-05 09:31 58.46874 17.73888 22837 ft 387 kts
2026-05-05 09:31 58.49499 17.74978 22337 ft 385 kts
2026-05-05 09:31 58.52105 17.76064 21852 ft 383 kts
2026-05-05 09:31 58.54697 17.77144 21359 ft 381 kts
2026-05-05 09:32 58.57279 17.78219 20895 ft 379 kts
2026-05-05 09:32 58.59848 17.79291 20417 ft 377 kts
2026-05-05 09:32 58.62402 17.80364 19978 ft 374 kts
2026-05-05 09:32 58.64935 17.81432 19545 ft 371 kts
2026-05-05 09:33 58.67445 17.82491 19159 ft 369 kts
2026-05-05 09:33 58.69946 17.83558 18746 ft 367 kts
2026-05-05 09:33 58.72436 17.84621 18349 ft 365 kts
2026-05-05 09:33 58.74933 17.85689 17938 ft 363 kts
2026-05-05 09:34 58.77392 17.86729 17505 ft 361 kts
2026-05-05 09:34 58.79840 17.87772 17077 ft 360 kts
2026-05-05 09:34 58.82267 17.89046 16650 ft 365 kts 12°
2026-05-05 09:34 58.84579 17.91095 16347 ft 362 kts 19°
2026-05-05 09:35 58.86793 17.93274 16075 ft 353 kts 19°
2026-05-05 09:35 58.91145 17.97471 15555 ft 348 kts 18°
2026-05-05 09:35 58.93314 17.99533 15329 ft 348 kts 17°
2026-05-05 09:36 58.95486 18.01594 15072 ft 346 kts 17°
2026-05-05 09:36 58.97643 18.03645 14826 ft 345 kts 17°
2026-05-05 09:36 58.99793 18.05689 14577 ft 343 kts 17°
2026-05-05 09:36 59.01937 18.07729 14328 ft 342 kts 17°
2026-05-05 09:37 59.04067 18.09760 14084 ft 341 kts 17°
2026-05-05 09:37 59.06187 18.11782 13843 ft 339 kts 17°
2026-05-05 09:37 59.08303 18.13802 13602 ft 337 kts 17°
2026-05-05 09:37 59.10464 18.15303 13300 ft 321 kts 360°
2026-05-05 09:38 59.12645 18.15708 13068 ft 312 kts 352°
2026-05-05 09:38 59.14799 18.15906 12796 ft 310 kts 352°
2026-05-05 09:38 59.16949 18.16109 12530 ft 309 kts 353°
2026-05-05 09:38 59.19091 18.16333 12306 ft 308 kts 353°
2026-05-05 09:39 59.21234 18.16570 12042 ft 308 kts 353°
2026-05-05 09:39 59.23364 18.16816 11782 ft 306 kts 353°
2026-05-05 09:39 59.25484 18.17064 11521 ft 304 kts 354°
2026-05-05 09:39 59.27591 18.17310 11268 ft 303 kts 354°
2026-05-05 09:40 59.29687 18.17556 11013 ft 301 kts 354°
2026-05-05 09:40 59.31778 18.17803 10796 ft 300 kts 354°
2026-05-05 09:40 59.33862 18.18050 10792 ft 300 kts 354°
2026-05-05 09:40 59.35948 18.18295 10808 ft 300 kts 354°
2026-05-05 09:41 59.38030 18.18543 10813 ft 300 kts 354°
2026-05-05 09:41 59.40116 18.18792 10817 ft 300 kts 354°
2026-05-05 09:41 59.42204 18.19039 10810 ft 300 kts 354°
2026-05-05 09:41 59.44257 18.19287 10724 ft 289 kts 354°
2026-05-05 09:42 59.46222 18.19528 10581 ft 277 kts 354°
2026-05-05 09:42 59.48105 18.19759 10429 ft 265 kts 353°
2026-05-05 09:42 59.49920 18.19978 10226 ft 258 kts 354°
2026-05-05 09:42 59.51704 18.20187 9878 ft 255 kts 355°
2026-05-05 09:43 59.53472 18.20462 9527 ft 256 kts 360°
2026-05-05 09:43 59.55215 18.20985 9281 ft 248 kts 359°
2026-05-05 09:43 59.56905 18.21341 8983 ft 242 kts 358°
2026-05-05 09:43 59.58571 18.21653 8675 ft 239 kts 358°
2026-05-05 09:44 59.60218 18.21947 8318 ft 236 kts 358°
2026-05-05 09:44 59.61871 18.22220 7933 ft 234 kts 358°
2026-05-05 09:44 59.63458 18.22398 7574 ft 229 kts 354°
2026-05-05 09:44 59.65063 18.22369 7207 ft 227 kts 353°
2026-05-05 09:45 59.66632 18.22291 6856 ft 224 kts 353°
2026-05-05 09:45 59.68178 18.22195 6511 ft 221 kts 353°
2026-05-05 09:45 59.69706 18.22082 6168 ft 219 kts 353°
2026-05-05 09:45 59.71226 18.21957 5786 ft 218 kts 353°
2026-05-05 09:46 59.72731 18.21826 5424 ft 216 kts 353°
2026-05-05 09:46 59.74226 18.21689 5039 ft 215 kts 353°
2026-05-05 09:46 59.75710 18.21542 4675 ft 213 kts 353°
2026-05-05 09:46 59.77185 18.21386 4271 ft 212 kts 353°
2026-05-05 09:47 59.78654 18.21220 3944 ft 209 kts 352°
2026-05-05 09:47 59.80009 18.20560 3690 ft 196 kts 326°
2026-05-05 09:47 59.80907 18.18647 3448 ft 190 kts 293°
2026-05-05 09:47 59.81212 18.16104 3304 ft 191 kts 278°
2026-05-05 09:48 59.81377 18.13491 3177 ft 189 kts 278°
2026-05-05 09:48 59.81522 18.10926 3054 ft 183 kts 275°
2026-05-05 09:48 59.81268 18.08544 2853 ft 177 kts 240°
2026-05-05 09:48 59.80457 18.06729 2839 ft 176 kts 230°
2026-05-05 09:49 59.79623 18.04946 2912 ft 176 kts 232°
2026-05-05 09:49 59.78802 18.03131 2804 ft 176 kts 232°
2026-05-05 09:49 59.77966 18.01381 2661 ft 173 kts 224°
2026-05-05 09:49 59.76913 18.00329 2531 ft 167 kts 203°
2026-05-05 09:50 59.75806 17.99791 2382 ft 163 kts 195°
2026-05-05 09:50 59.74689 17.99428 2168 ft 163 kts 195°
2026-05-05 09:50 59.73583 17.99031 1991 ft 157 kts 196°
2026-05-05 09:50 59.72517 17.98640 1755 ft 155 kts 196°
2026-05-05 09:51 59.71465 17.98269 1528 ft 152 kts 196°
2026-05-05 09:51 59.70439 17.97901 1282 ft 148 kts 197°
2026-05-05 09:51 59.69445 17.97531 1126 ft 144 kts 198°
2026-05-05 09:51 59.68460 17.97172 950 ft 144 kts 197°
2026-05-05 09:52 59.67482 17.96828 711 ft 141 kts 196°
2026-05-05 09:52 59.66518 17.96482 522 ft 140 kts 197°
2026-05-05 09:52 59.65564 17.96128 338 ft 139 kts 198°
2026-05-05 09:52 59.64611 17.95801 125 ft 138 kts 198°
2026-05-05 09:53 59.63783 17.95485 118 ft 98 kts 190°
2026-05-05 09:53 59.63277 17.95309 129 ft 54 kts 190°
2026-05-05 09:53 59.63063 17.95217 140 ft 21 kts 201°
2026-05-05 09:53 59.62982 17.95119 141 ft 0 kts 219°
2026-05-05 09:54 59.62982 17.95118 141 ft 0 kts 219°
2026-05-05 09:54 59.62972 17.95102 141 ft 6 kts 219°
2026-05-05 09:54 59.62916 17.95012 142 ft 14 kts 220°
2026-05-05 09:55 59.62845 17.94878 142 ft 14 kts 246°
2026-05-05 09:55 59.62908 17.94770 142 ft 16 kts
2026-05-05 09:55 59.63022 17.94811 138 ft 17 kts 11°
2026-05-05 09:55 59.63146 17.94855 134 ft 19 kts 10°
2026-05-05 09:56 59.63278 17.94901 130 ft 20 kts 10°
2026-05-05 09:56 59.63419 17.94951 126 ft 21 kts 10°
2026-05-05 09:56 59.63570 17.95005 121 ft 22 kts 10°
2026-05-05 09:56 59.63725 17.95061 115 ft 24 kts 10°
2026-05-05 09:57 59.63882 17.95119 115 ft 24 kts 10°
2026-05-05 09:57 59.64051 17.95181 114 ft 26 kts 10°
2026-05-05 09:57 59.64214 17.95239 112 ft 23 kts 10°
2026-05-05 09:57 59.64375 17.95298 111 ft 24 kts 10°
2026-05-05 09:58 59.64549 17.95362 110 ft 26 kts 10°
2026-05-05 09:58 59.64738 17.95431 111 ft 28 kts 10°
2026-05-05 09:58 59.64941 17.95504 116 ft 31 kts
2026-05-05 09:58 59.65163 17.95452 125 ft 34 kts 345°
2026-05-05 09:59 59.65334 17.95362 133 ft 23 kts 345°
2026-05-05 09:59 59.65494 17.95278 134 ft 25 kts 345°
2026-05-05 09:59 59.65641 17.95200 135 ft 17 kts 345°
2026-05-05 09:59 59.65745 17.95099 132 ft 18 kts 291°
2026-05-05 10:00 59.65726 17.94841 128 ft 20 kts 255°
2026-05-05 10:00 59.65690 17.94560 126 ft 22 kts 257°
2026-05-05 10:00 59.65653 17.94249 130 ft 24 kts 256°
2026-05-05 10:00 59.65626 17.94037 125 ft 11 kts 256°
2026-05-05 10:01 59.65606 17.93882 118 ft 12 kts 255°
2026-05-05 10:01 59.65583 17.93705 116 ft 14 kts 255°
2026-05-05 10:01 59.65556 17.93500 116 ft 16 kts 256°
2026-05-05 10:01 59.65532 17.93308 117 ft 12 kts 256°
2026-05-05 10:02 59.65479 17.93197 117 ft 14 kts 173°
2026-05-05 10:02 59.65423 17.93198 117 ft 8 kts 206°
2026-05-05 10:02 59.65391 17.93150 115 ft 0 kts 220°
2026-05-05 10:02 59.65384 17.93138 116 ft 0 kts 220°